Flag for Germany Weather past 2 weeks in Neunkirchen (Saar), Saarland, Germany

Now
88 °F

Passing clouds.


Feels Like: 85 °F
Forecast: 58 / 72 °F
Wind: 6 mph from Southwest

Location: Saarbruecken / Ensheim

Current Time: Aug 3, 2015 at 7:47:17 PM

Latest Report: Aug 3, 2015 at 7:20 PM


Visibility: N/A

Pressure: 29.98 "Hg

Humidity: 24%

Dew point: 46 °F

Location of Neunkirchen (Saar)Location

Historic Weather in Neunkirchen (Saar) — Graph

°F

Neunkirchen (Saar) temperature yesterday

Maximum temperature yesterday: 82 °F (at 3:20 PM)
Minimum temperature yesterday: 52 °F (at 5:50 AM)
Average temperature yesterday: 69 °F

Past Weeks' High & Low Weather Summary

 TemperatureHumidityPressure
High90 °F (Aug 3, 3:20 PM)94% (Jul 25, 3:50 AM)30.12 "Hg (Jul 25, 3:50 AM)
Low45 °F (Jul 26, 5:20 AM)23% (Aug 2, 3:50 PM)29.68 "Hg (Jul 24, 8:50 PM)
Average66 °F59%29.95 "Hg
* Reported Jul 19 6:20 PM — Aug 3 6:20 PM, Neunkirchen (Saar), Weather by CustomWeather, © 2015

Note: Actual official high and low records may vary slightly from our data, if they occured in-between our weather recording intervals... More about our weather records

Advertising

Neunkirchen (Saar) weather history for previous 24 hours

 ConditionsComfort  
Time TempWeatherWind HumidityBarometerVisibility
6:20 PM
Mon, Aug 3
90 °FSunny.3 mph26%29.98 "Hg10 mi
5:50 PM90 °FPassing clouds.7 mph24%29.98 "HgN/A
5:20 PM88 °FPassing clouds.9 mph25%29.98 "HgN/A
4:50 PM88 °FSunny.6 mph25%30.01 "Hg10 mi
4:20 PM88 °FSunny.7 mph27%30.01 "Hg10 mi
3:50 PM88 °FSunny.5 mph27%30.01 "Hg10 mi
3:20 PM90 °FPassing clouds.8 mph24%30.01 "HgN/A
2:20 PM88 °FSunny.7 mph25%30.04 "Hg10 mi
1:50 PM86 °FPassing clouds.8 mph27%30.04 "HgN/A
1:20 PM84 °FSunny.5 mph29%30.04 "Hg10 mi
12:50 PM84 °FPassing clouds.7 mph29%30.04 "HgN/A
12:20 PM82 °FSunny.5 mph30%30.04 "Hg10 mi
11:20 AM81 °FSunny.5 mph37%30.07 "Hg10 mi
10:50 AM77 °FPassing clouds.5 mph39%30.07 "HgN/A
10:20 AM77 °FPassing clouds.5 mph42%30.04 "HgN/A
9:50 AM75 °FPassing clouds.5 mph41%30.04 "HgN/A
9:20 AM73 °FPassing clouds.5 mph47%30.04 "HgN/A
8:50 AM72 °FSunny.5 mph50%30.04 "Hg10 mi
8:20 AM70 °FSunny.6 mph50%30.04 "Hg10 mi
7:50 AM68 °FSunny.5 mph53%30.04 "Hg10 mi
7:20 AM64 °FSunny.6 mph64%30.04 "Hg10 mi
6:50 AM61 °FClear.5 mph68%30.04 "Hg10 mi
6:20 AM59 °FClear.6 mph72%30.04 "Hg10 mi
5:50 AM59 °FClear.6 mph68%30.04 "Hg10 mi
5:20 AM61 °FClear.5 mph63%30.04 "Hg10 mi
4:50 AM61 °FClear.5 mph63%30.04 "Hg10 mi
4:20 AM61 °FClear.5 mph63%30.04 "Hg10 mi
3:50 AM63 °FClear.5 mph59%30.04 "Hg10 mi
3:20 AM63 °FClear.6 mph59%30.04 "Hg10 mi
2:50 AM63 °FClear.7 mph59%30.04 "Hg10 mi
2:20 AM63 °FClear.8 mph59%30.04 "Hg10 mi
1:50 AM64 °FClear.6 mph56%30.04 "Hg10 mi
1:20 AM64 °FClear.6 mph56%30.04 "Hg10 mi
12:50 AM64 °FPassing clouds.3 mph56%30.04 "HgN/A
12:20 AM68 °FClear.5 mph46%30.04 "Hg10 mi
11:50 PM
Sun, Aug 2
66 °FClear.5 mph49%30.04 "Hg10 mi
11:20 PM66 °FClear.5 mph49%30.04 "Hg10 mi
10:50 PM68 °FClear.5 mph49%30.04 "Hg10 mi
10:20 PM68 °FClear.5 mph46%30.04 "Hg10 mi
9:50 PM70 °FSunny.6 mph43%30.04 "Hg10 mi
9:20 PM72 °FSunny.6 mph38%30.04 "Hg10 mi
8:50 PM77 °FSunny.5 mph32%30.04 "Hg10 mi
8:20 PM79 °FSunny.6 mph30%30.04 "Hg10 mi
7:50 PM81 °FSunny.6 mph26%30.04 "Hg10 mi
7:20 PM81 °FPassing clouds.6 mph26%30.04 "HgN/A
Weather by CustomWeather, © 2015

See weather overviewHow to use our weather pages